Location: Milton
(43.5183°N, 79.8775°W)
Time: 14:43:55
(UTC+00:00)

Gurwin Techsat 1B - Visible Passes

Search period start: 27 March 2023 00:00
Search period end: 06 April 2023 00:00
Orbit: 811 x 814 km, 98.9° (Epoch: 26 March)

Date Brightness Start Highest point End Pass type
(mag) Time Alt. Az. Time Alt. Az. Time Alt. Az.
27 Mar 10.4 07:23:49 10° NE 07:27:24 26° ENE 07:27:24 26° ENE visible
27 Mar 9.1 09:03:22 10° N 09:08:20 41° WNW 09:08:36 40° WNW visible
28 Mar 10.9 07:01:38 10° NE 07:04:14 17° E 07:04:14 17° E visible
28 Mar 8.6 08:40:09 10° N 08:45:25 64° WNW 08:45:25 64° WNW visible
29 Mar 8.6 08:17:04 10° NNE 08:22:15 80° ENE 08:22:15 80° ENE visible
29 Mar 10.3 09:58:37 10° NNW 10:01:38 16° WNW 10:03:27 13° W visible
30 Mar 9.3 07:54:10 10° NNE 07:59:04 50° E 07:59:04 50° E visible
30 Mar 9.8 09:34:47 10° NNW 09:38:55 23° WNW 09:40:15 21° W visible
31 Mar 10.0 07:31:28 10° NNE 07:35:53 31° E 07:35:53 31° E visible
31 Mar 9.3 09:11:17 10° N 09:16:06 35° WNW 09:17:05 33° W visible
01 Apr 10.7 07:09:06 10° NE 07:12:42 20° E 07:12:42 20° E visible
01 Apr 8.7 08:48:00 10° N 08:53:12 55° WNW 08:53:54 51° W visible
02 Apr 11.2 06:47:35 10° ENE 06:49:30 12° E 06:49:30 12° E visible
02 Apr 8.4 08:24:52 10° NNE 08:30:14 87° WNW 08:30:42 75° SSW visible
02 Apr 10.5 10:06:50 10° NNW 10:09:20 13° WNW 10:11:49 10° W visible
03 Apr 8.9 08:01:54 10° NNE 08:07:11 59° E 08:07:31 58° ESE visible
03 Apr 10.0 09:42:48 10° NNW 09:46:38 21° WNW 09:48:43 16° W visible
04 Apr 9.7 07:39:08 10° NNE 07:44:03 37° E 07:44:20 37° ESE visible
04 Apr 9.5 09:19:12 10° N 09:23:50 31° WNW 09:25:32 26° W visible
05 Apr 10.4 07:16:38 10° NE 07:20:50 23° E 07:21:08 23° E visible
05 Apr 8.9 08:55:52 10° N 09:00:58 48° WNW 09:02:20 39° WSW visible
